Regional Weather Roundup
Issued by NWS

Home | Current Version | Previous Version | Text Only | Print | Product List | Glossary Off
Versions: 1 2 3 4 5 6 7 8 9 10 11 12 13 14 15 16 17 18 19 20 21 22 23 24 25 26 27 28 29 30 31 32 33 34 35 36 37 38 39 40 41 42 43 44 45 46 47 48 49 50

000
ASUS45 KABQ 021601
RWRNM
NEW MEXICO REGIONAL WEATHER ROUNDUP
NATIONAL WEATHER SERVICE ALBUQUERQUE NM
1000 AM MDT TUE JUN 02 2015

NOTE: "FAIR" MEANS FEW OR NO CLOUDS BELOW 12,000 FEET AGL WITH NO
       SIGNIFICANT WEATHER OR OBSTRUCTIONS TO VISION.

      THIS PRODUCT IS RELEASED AS TWO VERSIONS.  ONE VERSION NEAR
      THE TOP OF THE HOUR CONTAINING PRELIMINARY DATA FROM ALBUQUERQUE
      AND OTHER STATIONS.  A FINAL VERSION WITH ADDITIONAL DATA IS
      ISSUED ABOUT 10 MINUTES AFTER THE HOUR.

NMZ501-503-504-510>518-021700-
NORTHWEST PLATEAU/NORTHCENTRAL MOUNTAINS

CITY           SKY/WX    TMP DP  RH WIND       PRES   REMARKS
FARMINGTON     SUNNY     71  30  21 SE7       30.14S
SANTA FE       MOSUNNY   70  39  32 VRB5      30.21F
TAOS           PTSUNNY   64  37  36 SW7       30.26F

$$
NMZ402-403-502-505>509-021700-
WESTCENTRAL MOUNTAINS/SOUTHWEST MOUNTAINS

CITY           SKY/WX    TMP DP  RH WIND       PRES   REMARKS
GALLUP         SUNNY     71  28  20 SW13      30.22S
GRANTS         SUNNY     72  23  15 E6        30.24F
SILVER CITY      N/A     81  23  12 NW12      30.20R

$$
NMZ407-409-411-412-021700-
SOUTHERN DESERTS

CITY           SKY/WX    TMP DP  RH WIND       PRES   REMARKS
LORDSBURG      FAIR      81  23  12 NW6       30.13S
DEMING         SUNNY     84  25  11 SW7       30.11S
HOLLOMAN AFB   SUNNY     84  45  25 VRB5      30.07S
ALAMOGORDO     SUNNY     84  41  21 S12       30.09S
T OR C         SUNNY     81  34  18 VRB3      30.12F

$$
NMZ519>523-021700-
CENTRAL VALLEYS/CENTRAL HIGHLANDS

CITY           SKY/WX    TMP DP  RH WIND       PRES   REMARKS
ALBUQUERQUE    MOSUNNY   72  35  25 S3        30.17F
DOUBLE EAGLE   MOSUNNY   72  41  33 CALM      30.20F
MORIARTY ARPT  FAIR      75  30  19 NW8       30.21F
CLINES CORNERS SUNNY     73  30  20 NW18G26   30.23F
BELEN          FAIR      75  39  26 E3        30.16F
SOCORRO        NOT AVBL

$$
NMZ524>526-539-540-021700-
SOUTHCENTRAL MOUNTAINS

CITY           SKY/WX    TMP DP  RH WIND       PRES   REMARKS
RUIDOSO        NOT AVBL

$$
NMZ527>531-021700-
NORTHEAST HIGHLANDS/NORTHEAST PLAINS

CITY           SKY/WX    TMP DP  RH WIND       PRES   REMARKS
LAS VEGAS      SUNNY     71  43  36 S3        30.20F
RATON          SUNNY     71  46  40 VRB3      30.12F
CLAYTON        SUNNY     81  51  35 W16       30.01F

$$
NMZ532>537-021700-
EASTCENTRAL PLAINS

CITY           SKY/WX    TMP DP  RH WIND       PRES   REMARKS
TUCUMCARI      SUNNY     78  57  48 SW8       30.01F
CANNON AFB     SUNNY     72  60  65 SW7       30.07S
CLOVIS AIRPORT SUNNY     72  61  68 SW9         N/A

$$
NMZ028-029-538-021700-
SOUTHEAST PLAINS

CITY           SKY/WX    TMP DP  RH WIND       PRES   REMARKS
ROSWELL        SUNNY     79  57  46 SE6       30.02F
ARTESIA        SUNNY     79  61  53 SE8       30.03F
CARLSBAD       SUNNY     80  61  52 VRB6      30.01F
HOBBS          SUNNY     75  64  69 SE6       30.06F


$$



USA.gov is the U.S. government's official web portal to all federal, state and local government web resources and services.